FW0615 Weather Reports


Display with metric or nautical units.
time (UTC)temp
F
wind
direction
speed
MPH
gust
MPH
rain 1hr
in
rain 24hr
in
rain mn
in
humidity
%
barometer
mb
20220930222525 70 0.0 0.0 0.00 0.00 0.00 41 1017.0
20220930221527 70 0.0 0.0 0.00 0.00 0.00 41 1017.0
20220930220611 71 0.0 0.0 0.00 0.00 0.00 42 1016.8
20220930215519 71 0.0 0.0 0.00 0.00 0.00 42 1016.7
20220930214519 71 0.0 0.0 0.00 0.00 0.00 42 1016.7
20220930213519 71 0.0 0.0 0.00 0.00 0.00 43 1016.7
20220930212601 71 0.0 0.0 0.00 0.00 0.00 42 1016.9
20220930211520 71 0.0 0.0 0.00 0.00 0.00 43 1016.9
20220930210543 72 31.0 31.0 0.00 0.00 0.00 42 1017.1
20220930205527 71 0.0 0.0 0.00 0.00 0.00 42 1017.3
20220930204520 72 0.0 0.0 0.00 0.00 0.00 42 1017.3
20220930203519 71 33.0 42.0 0.00 0.00 0.00 43 1017.4
20220930202531 71 41.0 43.0 0.00 0.00 0.00 43 1017.5
20220930201549 71 16 4.0 7.0 0.00 0.00 0.00 44 1017.7
20220930195520 70 41.0 42.0 0.00 0.00 0.00 46 1017.9
20220930194519 71 23 36.0 42.0 0.00 0.00 0.00 46 1018.1
20220930193519 71 340 4.0 6.0 0.00 0.00 0.00 47 1018.3
20220930192537 72 0.0 0.0 0.00 0.00 0.00 47 1018.5
20220930191537 72 0.0 0.0 0.00 0.00 0.00 48 1018.8
20220930190536 70 0.0 0.0 0.00 0.00 0.00 49 1019.0
20220930185519 70 0.0 0.0 0.00 0.00 0.00 50 1019.0
20220930184530 70 0.0 0.0 0.00 0.00 0.00 49 1019.3
20220930183522 69 0.0 0.0 0.00 0.00 0.00 51 1019.4
20220930182556 68 0.0 0.0 0.00 0.00 0.00 50 1019.7
20220930181537 68 0.0 0.0 0.00 0.00 0.00 49 1019.9
20220930180535 68 0.0 0.0 0.00 0.00 0.00 52 1020.1
20220930175521 67 0.0 0.0 0.00 0.00 0.00 53 1020.2
20220930174519 66 0.0 0.0 0.00 0.00 0.00 56 1020.3
20220930172535 65 0.0 0.0 0.00 0.00 0.00 58 1020.7
20220930171717 64 0.0 0.0 0.00 0.00 0.00 60 1020.8
20220930170535 64 0.0 0.0 0.00 0.00 0.00 60 1021.1
20220930165519 63 0.0 0.0 0.00 0.00 0.00 64 1021.3
20220930164519 62 0.0 0.0 0.00 0.00 0.00 64 1021.6
20220930163520 62 0.0 0.0 0.00 0.00 0.00 64 1021.6
20220930162618 61 0.0 0.0 0.00 0.00 0.00 67 1021.8
20220930161535 61 0.0 0.0 0.00 0.00 0.00 67 1021.9
20220930160558 60 0.0 0.0 0.00 0.00 0.00 68 1021.9
20220930155519 60 0.0 0.0 0.00 0.00 0.00 68 1021.9
20220930154522 59 0.0 0.0 0.00 0.00 0.00 68 1022.0
20220930153519 59 0.0 0.0 0.00 0.00 0.00 69 1022.2
20220930152537 58 0.0 0.0 0.00 0.00 0.00 69 1022.3
20220930151535 58 0.0 0.0 0.00 0.00 0.00 70 1022.4
20220930150555 57 0.0 0.0 0.00 0.00 0.00 71 1022.4
20220930145520 56 0.0 0.0 0.00 0.00 0.00 72 1022.6
20220930144528 56 0.0 0.0 0.00 0.00 0.00 72 1022.7
20220930143521 55 0.0 0.0 0.00 0.00 0.00 72 1022.8
20220930142556 55 0.0 0.0 0.00 0.00 0.00 73 1022.8
20220930141536 54 0.0 0.0 0.00 0.00 0.00 75 1022.9
20220930140535 54 0.0 0.0 0.00 0.00 0.00 76 1023.0
20220930135540 53 0.0 0.0 0.00 0.00 0.00 77 1023.1
20220930134523 53 0.0 0.0 0.00 0.00 0.00 78 1023.1
20220930133523 53 0.0 0.0 0.00 0.00 0.00 77 1023.1
20220930132717 52 0.0 0.0 0.00 0.00 0.00 78 1023.1
20220930131535 52 0.0 0.0 0.00 0.00 0.00 78 1023.2
20220930130620 52 0.0 0.0 0.00 0.00 0.00 79 1023.2
20220930125541 52 0.0 0.0 0.00 0.00 0.00 81 1023.3
20220930124522 50 0.0 0.0 0.00 0.00 0.00 84 1023.3
20220930123519 50 0.0 0.0 0.00 0.00 0.00 84 1023.2
20220930122535 49 0.0 0.0 0.00 0.00 0.00 84 1023.3
20220930121558 49 0.0 0.0 0.00 0.00 0.00 84 1023.4
20220930120535 49 0.0 0.0 0.00 0.00 0.00 84 1023.4
20220930115541 49 0.0 0.0 0.00 0.00 0.00 84 1023.3
20220930114521 49 0.0 0.0 0.00 0.00 0.00 84 1023.2
20220930113519 49 0.0 0.0 0.00 0.00 0.00 84 1023.2
20220930112636 49 0.0 0.0 0.00 0.00 0.00 84 1023.1
20220930111535 50 0.0 0.0 0.00 0.00 0.00 84 1022.9
20220930110616 50 0.0 0.0 0.00 0.00 0.00 83 1022.8
20220930105527 50 0.0 0.0 0.00 0.00 0.00 83 1022.9
20220930104520 50 0.0 0.0 0.00 0.00 0.00 83 1022.9
20220930103519 50 0.0 0.0 0.00 0.00 0.00 83 1023.0
20220930102535 50 0.0 0.0 0.00 0.00 0.00 83 1022.9
20220930101537 50 0.0 0.0 0.00 0.00 0.00 83 1023.0
20220930100539 50 0.0 0.0 0.00 0.00 0.00 83 1023.0
20220930095521 50 0.0 0.0 0.00 0.00 0.00 82 1023.1
20220930094541 50 0.0 0.0 0.00 0.00 0.00 81 1022.9
20220930093539 50 0.0 0.0 0.00 0.00 0.00 81 1023.0
20220930092535 51 0.0 0.0 0.00 0.00 0.00 80 1023.0
20220930091536 51 0.0 0.0 0.00 0.00 0.00 80 1022.9
20220930090555 51 0.0 0.0 0.00 0.00 0.00 79 1022.9
20220930085541 51 0.0 0.0 0.00 0.00 0.00 79 1022.9
20220930084540 51 0.0 0.0 0.00 0.00 0.00 79 1022.9
20220930083527 52 0.0 0.0 0.00 0.00 0.00 79 1022.9
20220930082557 52 0.0 0.0 0.00 0.00 0.00 78 1023.0
20220930081555 52 0.0 0.0 0.00 0.00 0.00 78 1023.0
20220930080640 52 0.0 0.0 0.00 0.00 0.00 78 1023.1
20220930075539 52 0.0 0.0 0.00 0.00 0.00 78 1023.2
20220930074521 52 0.0 0.0 0.00 0.00 0.00 77 1023.2
20220930073519 53 0.0 0.0 0.00 0.00 0.00 77 1023.2
20220930072636 53 0.0 0.0 0.00 0.00 0.00 77 1023.3
20220930071540 53 0.0 0.0 0.00 0.00 0.00 76 1023.4
20220930070537 53 0.0 0.0 0.00 0.00 0.00 76 1023.4
20220930065522 53 0.0 0.0 0.00 0.00 0.00 75 1023.3
20220930064540 54 0.0 0.0 0.00 0.00 0.00 74 1023.4
20220930063541 54 0.0 0.0 0.00 0.00 0.00 74 1023.5
20220930062555 54 0.0 0.0 0.00 0.00 0.00 73 1023.5
20220930061720 55 0.0 0.0 0.00 0.00 0.00 70 1023.4
20220930060536 55 0.0 0.0 0.00 0.00 0.00 71 1023.7
20220930055519 55 0.0 0.0 0.00 0.00 0.00 70 1023.7
20220930054520 55 0.0 0.0 0.00 0.00 0.00 70 1023.7
20220930053519 55 0.0 0.0 0.00 0.00 0.00 69 1023.9
20220930052556 56 0.0 0.0 0.00 0.00 0.00 69 1024.1
20220930051601 56 0.0 0.0 0.00 0.00 0.00 69 1024.2
20220930050535 56 0.0 0.0 0.00 0.00 0.00 68 1024.3
20220930045519 56 0.0 0.0 0.00 0.00 0.00 68 1024.4
20220930044539 57 0.0 0.0 0.00 0.00 0.00 68 1024.5
20220930043520 57 0.0 0.0 0.00 0.00 0.00 67 1024.6
20220930042619 57 0.0 0.0 0.00 0.00 0.00 67 1024.7
20220930041537 57 0.0 0.0 0.00 0.00 0.00 66 1024.8
20220930040535 58 0.0 0.0 0.00 0.00 0.00 66 1024.8
20220930035559 58 0.0 0.0 0.00 0.00 0.00 65 1024.9
20220930034519 58 0.0 0.0 0.00 0.00 0.00 65 1024.9
20220930033540 58 0.0 0.0 0.00 0.00 0.00 65 1024.9
20220930032538 58 0.0 0.0 0.00 0.00 0.00 65 1025.0
20220930031600 58 0.0 0.0 0.00 0.00 0.00 65 1025.0
20220930030555 58 0.0 0.0 0.00 0.00 0.00 66 1025.1
20220930025520 57 0.0 0.0 0.00 0.00 0.00 66 1025.1
20220930024519 57 0.0 0.0 0.00 0.00 0.00 67 1025.1
20220930023523 58 0.0 0.0 0.00 0.00 0.00 65 1025.1
20220930022537 58 0.0 0.0 0.00 0.00 0.00 64 1025.0
20220930021535 59 0.0 0.0 0.00 0.00 0.00 63 1025.1
20220930020535 60 0.0 0.0 0.00 0.00 0.00 61 1025.1
20220930014519 61 0.0 0.0 0.00 0.00 0.00 59 1025.0
20220930013543 61 0.0 0.0 0.00 0.00 0.00 58 1025.0
20220930012536 61 0.0 0.0 0.00 0.00 0.00 57 1025.0
20220930011555 62 0.0 0.0 0.00 0.00 0.00 56 1024.8
20220930010535 62 0.0 0.0 0.00 0.00 0.00 56 1024.8
20220930005520 62 0.0 0.0 0.00 0.00 0.00 55 1024.7
20220930004523 63 0.0 0.0 0.00 0.00 0.00 54 1024.7
20220930003521 63 0.0 0.0 0.00 0.00 0.00 54 1024.7
20220930002536 63 0.0 0.0 0.00 0.00 0.00 53 1024.6
20220930001615 64 0.0 0.0 0.00 0.00 0.00 51 1024.6
20220930000556 64 0.0 0.0 0.00 0.00 0.00 51 1024.7
20220929235519 64 0.0 0.0 0.00 0.00 0.00 50 1024.6
20220929234527 64 0.0 0.0 0.00 0.00 0.00 50 1024.5
20220929233629 65 0.0 0.0 0.00 0.00 0.00 49 1024.5
20220929232555 65 0.0 0.0 0.00 0.00 0.00 49 1024.6
20220929231535 65 0.0 0.0 0.00 0.00 0.00 49 1024.7
20220929230616 66 0.0 0.0 0.00 0.00 0.00 49 1024.7
20220929225559 66 0.0 0.0 0.00 0.00 0.00 48 1024.7
20220929224541 66 0.0 0.0 0.00 0.00 0.00 48 1024.8
20220929223520 67 0.0 0.0 0.00 0.00 0.00 48 1024.7